Tracking 29892 objects as of 21-Nov-2024
HD Live streaming from Space Station
objects crossing your sky now

STARLINK-2663

Track STARLINK-2663 now!
10-day predictions
STARLINK-2663 is classified as:


NORAD ID: 48443
Int'l Code: 2021-040R
Perigee: 553.3 km
Apogee: 555.4 km
Inclination: 53.1 °
Period: 95.6 minutes
Semi major axis: 6925 km
RCS: Unknown
Launch date: May 9, 2021
Source: United States (US)
Launch site: AIR FORCE EASTERN TEST RANGE (AFETR)
Your satellite tracking list
Your tracking list is empty




NASA's NSSDC Master Catalog

Two Line Element Set (TLE):
1 48443U 21040R   24324.82558359  .00001589  00000-0  12559-3 0  9998
2 48443  53.0549 153.3654 0001486  96.4645 263.6513 15.06394794195055
Source of the keplerian elements: AFSPC